CW5763 Weather Reports


Display with metric or nautical units.
time (UTC)temp
F
wind
direction
speed
MPH
gust
MPH
rain 1hr
in
rain 24hr
in
rain mn
in
humidity
%
barometer
mb
20260505225005 54 5 1.0 3.0 0.00 0.00 0.00 78 1011.4
20260505224005 55 5 1.0 2.0 0.00 0.00 0.00 78 1011.4
20260505223005 55 9 1.0 3.0 0.00 0.00 0.00 78 1011.5
20260505221005 55 358 0.0 3.0 0.00 0.00 0.00 78 1011.3
20260505214005 55 331 1.0 5.0 0.00 0.00 0.00 77 1011.4
20260505213005 55 328 1.0 3.0 0.00 0.00 0.00 77 1011.5
20260505212005 55 332 1.0 3.0 0.00 0.00 0.00 77 1011.4
20260505210005 56 350 0.0 2.0 0.00 0.00 0.00 77 1011.3
20260505205006 56 350 1.0 2.0 0.00 0.00 0.00 76 1011.3
20260505204005 56 348 0.0 3.0 0.00 0.00 0.00 77 1011.3
20260505203005 56 355 0.0 1.0 0.00 0.00 0.00 76 1011.3
20260505202005 56 355 0.0 3.0 0.00 0.00 0.00 75 1011.3
20260505201005 56 355 1.0 3.0 0.00 0.00 0.00 75 1011.3
20260505200005 57 355 0.0 2.0 0.00 0.00 0.00 75 1011.2
20260505195005 57 355 1.0 2.0 0.00 0.00 0.00 75 1011.1
20260505194005 57 355 1.0 2.0 0.00 0.00 0.00 75 1011.1
20260505193004 57 355 0.0 1.0 0.00 0.00 0.00 75 1011.0
20260505192005 58 355 0.0 2.0 0.00 0.00 0.00 74 1010.9
20260505190005 58 355 0.0 2.0 0.00 0.00 0.00 73 1010.8
20260505185004 58 355 0.0 2.0 0.00 0.00 0.00 73 1010.8
20260505184005 58 0 0.0 2.0 0.00 0.00 0.00 72 1010.7
20260505183005 58 0 0.0 2.0 0.00 0.00 0.00 71 1010.7
20260505182004 58 0 1.0 2.0 0.00 0.00 0.00 71 1010.7
20260505181005 58 0 0.0 2.0 0.00 0.00 0.00 71 1010.7
20260505174004 59 0 2.0 3.0 0.00 0.00 0.00 69 1010.8
20260505171004 60 0 0.0 2.0 0.00 0.00 0.00 69 1011.0
20260505165004 60 5 2.0 3.0 0.00 0.00 0.00 66 1011.1
20260505163007 61 347 1.0 3.0 0.00 0.00 0.00 66 1011.0
20260505162004 61 339 1.0 3.0 0.00 0.00 0.00 68 1011.0
20260505161004 61 321 1.0 5.0 0.00 0.00 0.00 66 1010.9
20260505153004 62 311 1.0 3.0 0.00 0.00 0.00 64 1011.1
20260505152004 62 310 2.0 5.0 0.00 0.00 0.00 64 1011.1
20260505151004 62 313 1.0 5.0 0.00 0.00 0.00 64 1011.1
20260505124004 60 25 3.0 7.0 0.00 0.00 0.00 68 1011.7
20260505123004 59 11 2.0 8.0 0.00 0.00 0.00 68 1011.8
20260505122004 59 27 2.0 6.0 0.00 0.00 0.00 68 1011.8
20260505121004 59 48 1.0 5.0 0.00 0.00 0.00 70 1011.7
20260505120006 59 71 2.0 5.0 0.00 0.00 0.00 68 1011.8
20260505114006 61 11 2.0 5.0 0.00 0.00 0.00 67 1011.7
20260505113006 61 5 1.0 5.0 0.00 0.00 0.00 67 1011.9
20260505112005 62 15 2.0 5.0 0.00 0.00 0.00 65 1011.8
20260505111006 62 13 3.0 6.0 0.00 0.00 0.00 65 1011.9
20260505102006 62 24 3.0 7.0 0.00 0.00 0.00 68 1012.1
20260505101006 61 13 2.0 7.0 0.00 0.00 0.00 72 1012.1
20260505100006 60 16 2.0 7.0 0.00 0.00 0.00 73 1012.0
20260505095006 59 12 3.0 5.0 0.00 0.00 0.00 72 1012.2
20260505094006 59 15 2.0 8.0 0.00 0.00 0.00 73 1012.3
20260505093006 58 15 2.0 9.0 0.00 0.00 0.00 74 1012.3
20260505091007 58 1 2.0 6.0 0.00 0.00 0.00 76 1012.3
20260505090006 58 18 3.0 8.0 0.00 0.00 0.00 78 1012.4
20260505085006 57 350 1.0 6.0 0.00 0.00 0.00 82 1012.5
20260505084006 57 335 1.0 7.0 0.00 0.00 0.00 80 1012.6
20260505083006 57 0 2.0 8.0 0.00 0.00 0.00 81 1012.5
20260505082005 55 22 1.0 3.0 0.00 0.00 0.00 84 1012.6
20260505081006 54 26 1.0 3.0 0.00 0.00 0.00 87 1012.4
20260505074006 54 26 1.0 3.0 0.00 0.00 0.00 88 1012.5
20260505073006 54 26 1.0 3.0 0.00 0.00 0.00 88 1012.5
20260505071006 53 28 0.0 2.0 0.00 0.00 0.00 90 1012.6
20260505070007 53 28 0.0 2.0 0.00 0.00 0.00 90 1012.5
20260505065006 53 24 0.0 3.0 0.00 0.00 0.00 90 1012.5
20260505064006 53 24 1.0 3.0 0.00 0.00 0.00 90 1012.6
20260505063005 53 26 2.0 3.0 0.00 0.00 0.00 90 1012.7
20260505062006 53 36 2.0 3.0 0.00 0.00 0.00 90 1012.6
20260505061004 53 54 1.0 3.0 0.00 0.00 0.00 90 1012.6
20260505055006 53 136 1.0 2.0 0.00 0.00 0.00 91 1012.5
20260505054006 53 136 1.0 2.0 0.00 0.00 0.00 91 1012.5
20260505053005 53 136 0.0 2.0 0.00 0.00 0.00 91 1012.4
20260505052005 53 136 0.0 2.0 0.00 0.00 0.00 91 1012.5
20260505051006 53 136 0.0 2.0 0.00 0.00 0.00 92 1012.4
20260505041005 54 136 0.0 1.0 0.00 0.00 0.00 93 1012.5
20260505035005 54 136 0.0 1.0 0.00 0.00 0.00 93 1012.5
20260505034005 54 136 0.0 1.0 0.00 0.00 0.00 93 1012.6
20260505033005 54 136 0.0 0.0 0.00 0.00 0.00 93 1012.8
20260505032005 54 136 0.0 0.0 0.00 0.00 0.00 93 1012.8
20260505031005 54 136 0.0 0.0 0.00 0.00 0.00 93 1012.9
20260505030005 54 136 0.0 0.0 0.00 0.00 0.00 93 1012.9
20260505025005 54 136 0.0 0.0 0.00 0.00 0.00 93 1013.0
20260505023005 54 136 0.0 1.0 0.00 0.00 0.00 93 1012.9
20260505022006 54 136 0.0 0.0 0.00 0.00 0.00 93 1013.0
20260505021005 54 136 0.0 0.0 0.00 0.00 0.00 93 1012.9
20260505020005 54 136 0.0 0.0 0.00 0.00 0.00 93 1013.0
20260505015007 54 136 0.0 2.0 0.00 0.00 0.00 93 1013.1
20260505014005 54 136 1.0 2.0 0.00 0.00 0.00 93 1013.2
20260505012005 54 136 0.0 0.0 0.00 0.00 0.00 92 1013.5
20260505010005 54 136 0.0 1.0 0.00 0.00 0.00 92 1013.5
20260505005005 54 136 0.0 2.0 0.00 0.00 0.00 92 1013.6
20260505004006 54 136 1.0 7.0 0.00 0.00 0.00 92 1013.6
20260505003005 54 135 3.0 7.0 0.00 0.00 0.00 92 1013.7
20260505002005 55 135 2.0 7.0 0.00 0.00 0.00 92 1013.6
20260505001007 55 137 3.0 7.0 0.00 0.00 0.00 91 1013.7
20260504235007 55 136 1.0 3.0 0.00 0.00 0.00 91 1013.7
20260504234005 55 136 2.0 5.0 0.00 0.00 0.00 91 1013.9
20260504233005 55 136 5.0 7.0 0.00 0.00 0.00 90 1013.8
20260504232007 55 136 0.0 0.0 0.00 0.00 0.00 89 1013.7